Location: Bothwell
(42.3833°S, 147.0000°E)
Time: 00:10:35
(UTC+10:00)

NOAA 15 - Visible Passes

Search period start: 01 October 2022 23:00
Search period end: 12 October 2022 00:00
Orbit: 797 x 812 km, 98.6° (Epoch: 01 October)

Date Brightness Start Highest point End Pass type
(mag) Time Alt. Az. Time Alt. Az. Time Alt. Az.
02 Oct 4.8 20:35:25 10° SSE 20:40:33 46° E 20:45:35 10° N visible
02 Oct 6.7 22:15:47 10° S 22:20:00 24° WSW 22:24:11 10° WNW visible
03 Oct 5.5 20:10:34 10° SE 20:15:04 27° E 20:19:30 10° NNE visible
03 Oct 5.9 21:50:00 10° S 21:54:54 39° WSW 21:59:46 10° NW visible
04 Oct 6.0 19:46:15 10° SE 19:49:29 16° E 19:52:42 10° NE visible
04 Oct 5.0 21:24:26 10° S 21:29:43 65° WSW 21:34:56 10° NNW visible
05 Oct 4.5 20:59:06 10° SSE 21:04:26 76° ENE 21:09:42 10° N visible
05 Oct 7.3 22:40:28 10° SSW 22:43:32 16° WSW 22:46:36 10° W visible
06 Oct 4.9 20:33:58 10° SSE 20:39:03 44° E 20:44:04 10° N visible
06 Oct 6.7 22:14:17 10° S 22:18:33 25° WSW 22:22:46 10° WNW visible
07 Oct 5.5 20:09:08 10° SE 20:13:35 26° E 20:17:58 10° NNE visible
07 Oct 5.9 21:48:30 10° S 21:53:27 40° WSW 21:58:20 10° NW visible
08 Oct 4.9 21:22:57 10° S 21:28:15 67° WSW 21:33:28 10° NNW visible
09 Oct 4.5 20:57:38 10° SSE 21:02:58 74° ENE 21:08:13 10° N visible
09 Oct 7.3 22:38:55 10° SSW 22:42:05 16° WSW 22:45:14 10° W visible
10 Oct 4.9 20:32:31 10° SSE 20:37:34 43° E 20:42:34 10° N visible
10 Oct 6.7 22:12:47 10° S 22:17:05 26° WSW 22:21:21 10° WNW visible
11 Oct 5.5 20:07:42 10° SE 20:12:05 26° E 20:16:26 10° NNE visible
11 Oct 5.8 21:47:00 10° S 21:51:59 41° WSW 21:56:54 10° NW visible
